| time (UTC) | temp F | wind direction | speed knots | gust knots | rain 1hr in | rain 24hr in | rain mn in | humidity % | barometer mb |
| 20260509173507 | 81 | 360 | 5.2 | 7.0 | 0.00 | 0.00 | 0.00 | 63 | 1007.7 |
| 20260509172505 | 81 | 337 | 6.1 | 7.8 | 0.00 | 0.00 | 0.00 | 61 | 1007.7 |
| 20260509172004 | 81 | 22 | 2.6 | 4.3 | 0.00 | 0.00 | 0.00 | 64 | 1007.7 |
| 20260509171507 | 80 | 360 | 6.1 | 7.8 | 0.00 | 0.00 | 0.00 | 62 | 1007.7 |
| 20260509171030 | 81 | 22 | 6.1 | 7.8 | 0.00 | 0.00 | 0.00 | 61 | 1007.7 |
| 20260509170508 | 80 | 337 | 3.5 | 4.3 | 0.00 | 0.00 | 0.00 | 61 | 1008.0 |
| 20260509170004 | 79 | 315 | 7.0 | 7.8 | 0.00 | 0.00 | 0.00 | 61 | 1008.0 |
| 20260509165507 | 79 | 315 | 6.1 | 7.8 | 0.00 | 0.00 | 0.00 | 61 | 1008.0 |
| 20260509165004 | 80 | 315 | 7.8 | 9.6 | 0.00 | 0.00 | 0.00 | 59 | 1008.0 |
| 20260509164507 | 79 | 315 | 4.3 | 5.2 | 0.00 | 0.00 | 0.00 | 59 | 1008.3 |
| 20260509163505 | 79 | 315 | 7.8 | 8.7 | 0.00 | 0.00 | 0.00 | 60 | 1008.3 |
| 20260509163008 | 79 | 315 | 8.7 | 10.4 | 0.00 | 0.00 | 0.00 | 60 | 1008.3 |
| 20260509162505 | 78 | 315 | 4.3 | 6.1 | 0.00 | 0.00 | 0.00 | 61 | 1008.3 |
| 20260509162003 | 78 | 337 | 5.2 | 7.0 | 0.00 | 0.00 | 0.00 | 65 | 1008.3 |
| 20260509161506 | 78 | 315 | 7.0 | 9.6 | 0.00 | 0.00 | 0.00 | 62 | 1008.3 |
| 20260509161003 | 78 | 337 | 4.3 | 6.1 | 0.00 | 0.00 | 0.00 | 62 | 1008.3 |
| 20260509160507 | 78 | 292 | 7.8 | 10.4 | 0.00 | 0.00 | 0.00 | 64 | 1008.3 |
| 20260509160004 | 78 | 337 | 7.8 | 8.7 | 0.00 | 0.00 | 0.00 | 62 | 1008.3 |
| 20260509155507 | 78 | 315 | 7.8 | 8.7 | 0.00 | 0.00 | 0.00 | 64 | 1008.3 |
| 20260509155004 | 78 | 360 | 5.2 | 8.7 | 0.00 | 0.00 | 0.00 | 66 | 1008.3 |
| 20260509154507 | 77 | 292 | 8.7 | 10.4 | 0.00 | 0.00 | 0.00 | 64 | 1008.7 |
| 20260509154005 | 77 | 292 | 6.1 | 7.8 | 0.00 | 0.00 | 0.00 | 65 | 1008.7 |
| 20260509153508 | 77 | 292 | 8.7 | 10.4 | 0.00 | 0.00 | 0.00 | 63 | 1008.3 |
| 20260509153005 | 77 | 315 | 8.7 | 11.3 | 0.00 | 0.00 | 0.00 | 67 | 1008.3 |
| 20260509152506 | 77 | 292 | 9.6 | 11.3 | 0.00 | 0.00 | 0.00 | 64 | 1008.7 |
| 20260509152003 | 76 | 337 | 7.0 | 9.6 | 0.00 | 0.00 | 0.00 | 66 | 1008.7 |
| 20260509151506 | 76 | 292 | 7.8 | 9.6 | 0.00 | 0.00 | 0.00 | 63 | 1009.0 |
| 20260509151004 | 76 | 292 | 9.6 | 11.3 | 0.00 | 0.00 | 0.00 | 69 | 1009.0 |
| 20260509150008 | 75 | 292 | 9.6 | 11.3 | 0.00 | 0.00 | 0.00 | 73 | 1008.7 |
| 20260509145505 | 75 | 292 | 11.3 | 13.0 | 0.00 | 0.00 | 0.00 | 68 | 1008.7 |
| 20260509144503 | 76 | 292 | 7.0 | 8.7 | 0.00 | 0.00 | 0.00 | 72 | 1008.7 |
| 20260509144006 | 75 | 292 | 8.7 | 9.6 | 0.00 | 0.00 | 0.00 | 71 | 1008.7 |
| 20260509143506 | 75 | 292 | 8.7 | 12.2 | 0.00 | 0.00 | 0.00 | 70 | 1009.0 |
| 20260509143005 | 75 | 292 | 7.0 | 9.6 | 0.00 | 0.00 | 0.00 | 73 | 1009.0 |
| 20260509142504 | 75 | 292 | 9.6 | 10.4 | 0.00 | 0.00 | 0.00 | 76 | 1009.0 |
| 20260509141506 | 74 | 292 | 8.7 | 9.6 | 0.00 | 0.00 | 0.00 | 81 | 1009.0 |
| 20260509141009 | 74 | 292 | 8.7 | 10.4 | 0.00 | 0.00 | 0.00 | 84 | 1009.0 |
| 20260509140532 | 73 | 292 | 8.7 | 9.6 | 0.00 | 0.00 | 0.00 | 86 | 1009.7 |
| 20260509140009 | 73 | 315 | 7.0 | 8.7 | 0.00 | 0.00 | 0.00 | 89 | 1009.7 |
| 20260509135506 | 73 | 315 | 8.7 | 10.4 | 0.00 | 0.00 | 0.00 | 92 | 1010.0 |
| 20260509134504 | 72 | 315 | 5.2 | 6.1 | 0.00 | 0.00 | 0.00 | 96 | 1010.4 |
| 20260509134007 | 72 | 315 | 6.1 | 8.7 | 0.00 | 0.00 | 0.00 | 97 | 1010.4 |
| 20260509133504 | 71 | 315 | 6.1 | 7.8 | 0.00 | 0.00 | 0.00 | 98 | 1010.4 |
| 20260509133007 | 71 | 315 | 7.0 | 8.7 | 0.00 | 0.00 | 0.00 | 99 | 1010.4 |
| 20260509132504 | 70 | 315 | 7.0 | 8.7 | 0.00 | 0.00 | 0.00 | 99 | 1010.7 |
| 20260509132007 | 70 | 292 | 5.2 | 7.0 | 0.00 | 0.00 | 0.00 | 100 | 1010.7 |
| 20260509131507 | 70 | 315 | 7.0 | 8.7 | 0.00 | 0.00 | 0.00 | 100 | 1010.7 |
| 20260509131004 | 69 | 315 | 7.8 | 8.7 | 0.00 | 0.00 | 0.00 | 100 | 1010.7 |
| 20260509130008 | 69 | 337 | 7.0 | 8.7 | 0.00 | 0.00 | 0.00 | 100 | 1010.7 |
| 20260509125505 | 68 | 315 | 7.0 | 8.7 | 0.00 | 0.00 | 0.00 | 100 | 1011.0 |
| 20260509125003 | 68 | 292 | 7.0 | 8.7 | 0.00 | 0.00 | 0.00 | 100 | 1011.0 |
| 20260509124506 | 67 | 292 | 7.0 | 8.7 | 0.00 | 0.00 | 0.00 | 100 | 1011.0 |
| 20260509124004 | 67 | 315 | 5.2 | 6.1 | 0.00 | 0.00 | 0.00 | 100 | 1011.0 |
| 20260509123507 | 67 | 315 | 5.2 | 7.0 | 0.00 | 0.00 | 0.00 | 100 | 1011.4 |
| 20260509123003 | 66 | 315 | 5.2 | 7.0 | 0.00 | 0.00 | 0.00 | 100 | 1011.4 |
| 20260509122506 | 66 | 315 | 6.1 | 7.8 | 0.00 | 0.00 | 0.00 | 100 | 1011.4 |
| 20260509122006 | 66 | 315 | 6.1 | 7.8 | 0.00 | 0.00 | 0.00 | 100 | 1011.4 |
| 20260509121508 | 66 | 315 | 6.1 | 7.8 | 0.00 | 0.00 | 0.00 | 100 | 1011.7 |
| 20260509121005 | 66 | 292 | 6.1 | 7.0 | 0.00 | 0.00 | 0.00 | 100 | 1011.7 |
| 20260509120508 | 66 | 315 | 5.2 | 6.1 | 0.00 | 0.00 | 0.00 | 100 | 1011.4 |
| 20260509120043 | 66 | 292 | 6.1 | 7.8 | 0.00 | 0.00 | 0.00 | 100 | 1011.4 |
| 20260509115506 | 66 | 315 | 6.1 | 7.8 | 0.00 | 0.00 | 0.00 | 100 | 1011.0 |
| 20260509115009 | 66 | 315 | 7.8 | 9.6 | 0.00 | 0.00 | 0.00 | 100 | 1011.0 |
| 20260509114506 | 66 | 292 | 5.2 | 6.1 | 0.00 | 0.00 | 0.00 | 100 | 1011.4 |
| 20260509114003 | 66 | 292 | 7.0 | 7.8 | 0.00 | 0.00 | 0.00 | 100 | 1011.4 |
| 20260509113507 | 66 | 292 | 6.1 | 7.8 | 0.00 | 0.00 | 0.00 | 100 | 1011.0 |
| 20260509113004 | 66 | 292 | 6.1 | 7.0 | 0.00 | 0.00 | 0.00 | 100 | 1011.0 |
| 20260509112507 | 66 | 292 | 6.1 | 7.8 | 0.00 | 0.00 | 0.00 | 100 | 1010.7 |
| 20260509112004 | 66 | 292 | 7.8 | 8.7 | 0.00 | 0.00 | 0.00 | 100 | 1010.7 |
| 20260509111507 | 66 | 315 | 6.1 | 7.0 | 0.00 | 0.00 | 0.00 | 100 | 1011.0 |
| 20260509111005 | 66 | 292 | 7.0 | 7.8 | 0.00 | 0.00 | 0.00 | 100 | 1011.0 |
| 20260509110509 | 66 | 292 | 7.0 | 8.7 | 0.00 | 0.00 | 0.00 | 100 | 1011.0 |
| 20260509110006 | 66 | 270 | 7.8 | 8.7 | 0.00 | 0.03 | 0.00 | 100 | 1011.0 |
| 20260509105509 | 66 | 247 | 8.7 | 10.4 | 0.00 | 0.08 | 0.00 | 100 | 1010.4 |
| 20260509105006 | 66 | 270 | 6.1 | 7.8 | 0.00 | 0.09 | 0.00 | 100 | 1010.4 |
| 20260509104003 | 66 | 315 | 5.2 | 7.8 | 0.00 | 0.09 | 0.00 | 100 | 1010.4 |
| 20260509103506 | 66 | 337 | 6.1 | 7.0 | 0.00 | 0.09 | 0.00 | 100 | 1010.0 |
| 20260509103003 | 67 | 337 | 6.1 | 7.8 | 0.00 | 0.09 | 0.00 | 100 | 1010.0 |
| 20260509102507 | 67 | 360 | 6.1 | 8.7 | 0.00 | 0.09 | 0.00 | 100 | 1010.4 |
| 20260509102003 | 67 | 337 | 6.1 | 7.0 | 0.00 | 0.09 | 0.00 | 100 | 1010.4 |
| 20260509101506 | 67 | 315 | 7.0 | 7.8 | 0.00 | 0.09 | 0.00 | 100 | 1010.4 |
| 20260509101003 | 67 | 315 | 7.0 | 8.7 | 0.00 | 0.09 | 0.00 | 100 | 1010.4 |
| 20260509100007 | 67 | 315 | 4.3 | 5.2 | 0.00 | 0.09 | 0.00 | 100 | 1009.7 |
| 20260509095531 | 67 | 292 | 3.5 | 4.3 | 0.00 | 0.09 | 0.00 | 100 | 1009.4 |
| 20260509095007 | 67 | 292 | 1.7 | 3.5 | 0.00 | 0.09 | 0.00 | 100 | 1009.4 |
| 20260509094504 | 67 | 90 | 0.9 | 2.6 | 0.00 | 0.09 | 0.00 | 100 | 1009.0 |
| 20260509094007 | 68 | 90 | 2.6 | 3.5 | 0.00 | 0.09 | 0.00 | 100 | 1009.0 |
| 20260509093504 | 68 | 67 | 5.2 | 7.0 | 0.00 | 0.09 | 0.00 | 100 | 1008.3 |
| 20260509092508 | 68 | 67 | 10.4 | 13.9 | 0.00 | 0.09 | 0.00 | 100 | 1008.3 |
| 20260509092005 | 68 | 45 | 8.7 | 13.0 | 0.00 | 0.09 | 0.00 | 100 | 1008.3 |
| 20260509091508 | 68 | 45 | 9.6 | 15.6 | 0.00 | 0.09 | 0.00 | 100 | 1008.0 |
| 20260509091005 | 68 | 22 | 7.0 | 8.7 | 0.00 | 0.09 | 0.00 | 100 | 1008.0 |
| 20260509090510 | 68 | 45 | 9.6 | 13.9 | 0.00 | 0.09 | 0.00 | 100 | 1008.3 |
| 20260509090005 | 69 | 45 | 8.7 | 13.0 | 0.00 | 0.09 | 0.00 | 100 | 1008.3 |
| 20260509085508 | 69 | 22 | 8.7 | 13.0 | 0.00 | 0.09 | 0.00 | 100 | 1007.7 |
| 20260509085005 | 69 | 360 | 10.4 | 13.9 | 0.00 | 0.09 | 0.00 | 100 | 1007.7 |
| 20260509084004 | 69 | 22 | 13.9 | 19.1 | 0.00 | 0.09 | 0.00 | 99 | 1007.7 |
| 20260509083508 | 70 | 337 | 11.3 | 15.6 | 0.00 | 0.09 | 0.00 | 93 | 1007.7 |
| 20260509083005 | 70 | 337 | 11.3 | 15.6 | 0.00 | 0.09 | 0.00 | 92 | 1007.7 |
| 20260509082508 | 70 | 337 | 9.6 | 12.2 | 0.00 | 0.09 | 0.00 | 92 | 1007.7 |
| 20260509082005 | 70 | 360 | 8.7 | 11.3 | 0.00 | 0.09 | 0.00 | 96 | 1007.7 |
| 20260509081508 | 70 | 337 | 9.6 | 13.0 | 0.00 | 0.09 | 0.00 | 99 | 1007.0 |
| 20260509081005 | 69 | 225 | 6.1 | 7.8 | 0.00 | 0.09 | 0.00 | 100 | 1007.0 |
| 20260509080508 | 69 | 180 | 7.8 | 9.6 | 0.00 | 0.09 | 0.00 | 100 | 1006.6 |
| 20260509080005 | 70 | 180 | 7.8 | 11.3 | 0.00 | 0.09 | 0.00 | 100 | 1006.6 |
| 20260509074505 | 69 | 157 | 11.3 | 15.6 | 0.00 | 0.09 | 0.00 | 100 | 1007.7 |
| 20260509074008 | 69 | 180 | 9.6 | 13.9 | 0.00 | 0.09 | 0.00 | 100 | 1007.7 |
| 20260509073505 | 69 | 157 | 13.0 | 16.5 | 0.00 | 0.09 | 0.00 | 100 | 1008.3 |
| 20260509073008 | 69 | 202 | 16.5 | 21.7 | 0.00 | 0.09 | 0.00 | 100 | 1008.3 |
| 20260509072505 | 69 | 202 | 8.7 | 11.3 | 0.00 | 0.09 | 0.00 | 100 | 1009.0 |
| 20260509072008 | 69 | 202 | 13.9 | 20.0 | 0.00 | 0.09 | 0.00 | 100 | 1009.0 |
| 20260509071504 | 69 | 202 | 15.6 | 20.0 | 0.00 | 0.09 | 0.00 | 100 | 1009.4 |
| 20260509071007 | 69 | 202 | 14.8 | 18.2 | 0.00 | 0.09 | 0.00 | 100 | 1009.4 |
| 20260509070006 | 69 | 202 | 13.0 | 16.5 | 0.00 | 0.09 | 0.00 | 100 | 1009.7 |
| 20260509065511 | 68 | 202 | 14.8 | 19.1 | 0.00 | 0.09 | 0.00 | 100 | 1010.4 |
| 20260509065006 | 68 | 202 | 12.2 | 15.6 | 0.00 | 0.09 | 0.00 | 100 | 1010.4 |
| 20260509064504 | 68 | 202 | 13.9 | 15.6 | 0.00 | 0.09 | 0.00 | 100 | 1010.4 |
| 20260509064007 | 68 | 202 | 9.6 | 13.0 | 0.00 | 0.09 | 0.00 | 100 | 1010.4 |
| 20260509063504 | 68 | 202 | 8.7 | 11.3 | 0.00 | 0.09 | 0.00 | 100 | 1011.0 |
| 20260509063003 | 67 | 202 | 7.8 | 10.4 | 0.00 | 0.09 | 0.00 | 100 | 1011.0 |
| 20260509062506 | 67 | 202 | 7.8 | 9.6 | 0.00 | 0.09 | 0.00 | 100 | 1011.7 |
| 20260509062003 | 67 | 225 | 7.8 | 8.7 | 0.00 | 0.09 | 0.00 | 100 | 1011.7 |
| 20260509061506 | 67 | 225 | 7.8 | 9.6 | 0.00 | 0.09 | 0.00 | 100 | 1011.7 |
| 20260509061004 | 67 | 202 | 8.7 | 8.7 | 0.00 | 0.09 | 0.00 | 100 | 1011.7 |
| 20260509060507 | 67 | 225 | 9.6 | 12.2 | 0.00 | 0.09 | 0.00 | 100 | 1011.7 |
| 20260509060005 | 67 | 202 | 8.7 | 9.6 | 0.00 | 0.09 | 0.00 | 100 | 1011.7 |
| 20260509055507 | 67 | 225 | 7.8 | 8.7 | 0.00 | 0.09 | 0.00 | 100 | 1011.7 |
| 20260509055005 | 67 | 202 | 7.0 | 8.7 | 0.00 | 0.09 | 0.00 | 100 | 1011.7 |
| 20260509054528 | 67 | 202 | 6.1 | 7.0 | 0.00 | 0.09 | 0.00 | 100 | 1011.0 |
| 20260509054004 | 67 | 202 | 5.2 | 6.1 | 0.00 | 0.09 | 0.00 | 100 | 1011.0 |
| 20260509052511 | 67 | 202 | 3.5 | 4.3 | 0.00 | 0.09 | 0.00 | 100 | 1011.0 |
| 20260509052006 | 68 | 202 | 7.0 | 8.7 | 0.00 | 0.09 | 0.00 | 100 | 1011.0 |
| 20260509051503 | 68 | 180 | 7.8 | 8.7 | 0.00 | 0.09 | 0.00 | 100 | 1011.7 |
| 20260509051006 | 68 | 157 | 5.2 | 6.1 | 0.00 | 0.09 | 0.00 | 100 | 1011.7 |
| 20260509050508 | 68 | 202 | 4.3 | 4.3 | 0.00 | 0.09 | 0.00 | 100 | 1011.7 |
| 20260509045506 | 68 | 315 | 0.0 | 1.7 | 0.00 | 0.09 | 0.09 | 100 | 1012.4 |
| 20260509045003 | 68 | 337 | 5.2 | 7.0 | 0.00 | 0.09 | 0.09 | 100 | 1012.4 |
| 20260509044506 | 68 | 315 | 6.1 | 7.8 | 0.00 | 0.09 | 0.09 | 100 | 1012.4 |
| 20260509044003 | 68 | 337 | 6.1 | 7.8 | 0.00 | 0.09 | 0.09 | 100 | 1012.4 |
| 20260509043506 | 68 | 337 | 12.2 | 17.4 | 0.00 | 0.09 | 0.09 | 100 | 1011.4 |
| 20260509043003 | 68 | 337 | 11.3 | 15.6 | 0.00 | 0.09 | 0.09 | 100 | 1011.4 |
| 20260509042506 | 69 | 337 | 0.9 | 4.3 | 0.00 | 0.09 | 0.09 | 100 | 1010.7 |
| 20260509042008 | 69 | 135 | 3.5 | 4.3 | 0.00 | 0.09 | 0.09 | 99 | 1010.7 |
| 20260509041503 | 69 | 67 | 5.2 | 6.1 | 0.00 | 0.09 | 0.09 | 99 | 1010.4 |
| 20260509041006 | 70 | 67 | 5.2 | 5.2 | 0.00 | 0.09 | 0.09 | 100 | 1010.4 |
| 20260509040503 | 70 | 135 | 3.5 | 5.2 | 0.00 | 0.09 | 0.09 | 99 | 1010.0 |
| 20260509040006 | 70 | 157 | 5.2 | 7.8 | 0.00 | 0.09 | 0.09 | 99 | 1010.0 |
| 20260509035503 | 70 | 157 | 7.0 | 9.6 | 0.00 | 0.09 | 0.09 | 99 | 1009.7 |
| 20260509034505 | 70 | 157 | 7.8 | 9.6 | 0.00 | 0.09 | 0.09 | 99 | 1009.7 |
| 20260509034028 | 70 | 157 | 7.8 | 11.3 | 0.00 | 0.09 | 0.09 | 99 | 1009.7 |
| 20260509033006 | 70 | 157 | 7.0 | 7.8 | 0.00 | 0.09 | 0.09 | 99 | 1009.7 |
| 20260509032507 | 70 | 157 | 7.0 | 7.0 | 0.00 | 0.09 | 0.09 | 98 | 1009.7 |
| 20260509032004 | 70 | 157 | 3.5 | 5.2 | 0.00 | 0.09 | 0.09 | 98 | 1009.7 |
| 20260509031507 | 70 | 112 | 7.0 | 10.4 | 0.00 | 0.09 | 0.09 | 98 | 1010.0 |
| 20260509031004 | 70 | 112 | 7.8 | 9.6 | 0.00 | 0.09 | 0.09 | 97 | 1010.0 |
| 20260509030008 | 70 | 67 | 7.0 | 9.6 | 0.00 | 0.09 | 0.09 | 97 | 1010.4 |
| 20260509025505 | 70 | 67 | 7.0 | 8.7 | 0.00 | 0.09 | 0.09 | 99 | 1010.4 |
| 20260509024503 | 70 | 22 | 7.0 | 8.7 | 0.00 | 0.09 | 0.09 | 99 | 1010.0 |
| 20260509024006 | 69 | 22 | 7.8 | 8.7 | 0.00 | 0.09 | 0.09 | 98 | 1010.0 |
| 20260509023504 | 69 | 22 | 6.1 | 8.7 | 0.00 | 0.09 | 0.09 | 98 | 1009.4 |
| 20260509023004 | 69 | 45 | 5.2 | 7.0 | 0.00 | 0.09 | 0.09 | 98 | 1009.4 |
| 20260509022507 | 69 | 112 | 3.5 | 5.2 | 0.00 | 0.09 | 0.09 | 97 | 1008.7 |
| 20260509022004 | 69 | 135 | 5.2 | 7.8 | 0.00 | 0.09 | 0.09 | 96 | 1008.7 |
| 20260509021507 | 70 | 157 | 4.3 | 7.0 | 0.00 | 0.09 | 0.09 | 97 | 1008.3 |
| 20260509021004 | 70 | 157 | 5.2 | 7.8 | 0.00 | 0.09 | 0.09 | 96 | 1008.3 |
| 20260509020507 | 70 | 135 | 5.2 | 7.8 | 0.00 | 0.09 | 0.09 | 96 | 1008.0 |
| 20260509020005 | 70 | 157 | 8.7 | 10.4 | 0.00 | 0.09 | 0.09 | 96 | 1008.0 |
| 20260509015507 | 71 | 135 | 6.1 | 8.7 | 0.00 | 0.09 | 0.09 | 95 | 1008.0 |
| 20260509015004 | 71 | 157 | 7.0 | 8.7 | 0.00 | 0.09 | 0.09 | 94 | 1008.0 |
| 20260509014507 | 71 | 157 | 8.7 | 11.3 | 0.00 | 0.09 | 0.09 | 94 | 1008.0 |
| 20260509014005 | 71 | 157 | 8.7 | 12.2 | 0.00 | 0.09 | 0.09 | 92 | 1008.0 |
| 20260509013527 | 71 | 157 | 7.8 | 9.6 | 0.00 | 0.09 | 0.09 | 92 | 1007.7 |
| 20260509013004 | 71 | 157 | 7.8 | 8.7 | 0.00 | 0.09 | 0.09 | 91 | 1007.7 |
| 20260509012507 | 72 | 180 | 9.6 | 10.4 | 0.00 | 0.09 | 0.09 | 90 | 1007.7 |
| 20260509012004 | 72 | 157 | 10.4 | 12.2 | 0.00 | 0.09 | 0.09 | 89 | 1007.7 |
| 20260509011507 | 72 | 157 | 8.7 | 11.3 | 0.00 | 0.09 | 0.09 | 88 | 1008.0 |
| 20260509011004 | 73 | 157 | 8.7 | 10.4 | 0.00 | 0.09 | 0.09 | 87 | 1008.0 |
| 20260509010507 | 73 | 157 | 9.6 | 10.4 | 0.00 | 0.09 | 0.09 | 86 | 1008.0 |
| 20260509010006 | 73 | 157 | 7.8 | 9.6 | 0.00 | 0.09 | 0.09 | 86 | 1008.0 |
| 20260509005004 | 73 | 180 | 8.7 | 10.4 | 0.00 | 0.09 | 0.09 | 85 | 1007.7 |
| 20260509004507 | 73 | 157 | 8.7 | 10.4 | 0.00 | 0.09 | 0.09 | 84 | 1007.7 |
| 20260509004004 | 73 | 157 | 7.8 | 9.6 | 0.00 | 0.09 | 0.09 | 84 | 1007.7 |
| 20260509003507 | 73 | 180 | 8.7 | 11.3 | 0.00 | 0.09 | 0.09 | 83 | 1007.3 |
| 20260509003004 | 73 | 157 | 9.6 | 13.0 | 0.00 | 0.09 | 0.09 | 82 | 1007.3 |
| 20260509002507 | 74 | 157 | 11.3 | 14.8 | 0.00 | 0.09 | 0.09 | 82 | 1007.3 |
| 20260509002004 | 74 | 180 | 11.3 | 13.9 | 0.00 | 0.09 | 0.09 | 81 | 1007.3 |
| 20260509000504 | 75 | 180 | 11.3 | 15.6 | 0.00 | 0.09 | 0.09 | 78 | 1006.6 |
| 20260509000007 | 75 | 180 | 12.2 | 14.8 | 0.00 | 0.09 | 0.09 | 76 | 1006.6 |
| 20260508235504 | 75 | 157 | 9.6 | 12.2 | 0.00 | 0.09 | 0.09 | 76 | 1007.0 |
| 20260508235007 | 76 | 157 | 11.3 | 13.9 | 0.00 | 0.09 | 0.09 | 75 | 1007.0 |
| 20260508234504 | 76 | 157 | 7.8 | 11.3 | 0.00 | 0.09 | 0.09 | 74 | 1006.6 |
| 20260508234007 | 76 | 157 | 12.2 | 14.8 | 0.00 | 0.09 | 0.09 | 73 | 1006.6 |
| 20260508233504 | 76 | 180 | 9.6 | 12.2 | 0.00 | 0.09 | 0.09 | 72 | 1007.0 |
| 20260508232505 | 77 | 157 | 8.7 | 10.4 | 0.00 | 0.09 | 0.09 | 69 | 1007.0 |
| 20260508232008 | 76 | 157 | 7.0 | 8.7 | 0.00 | 0.09 | 0.09 | 69 | 1007.0 |
| 20260508231505 | 76 | 180 | 9.6 | 11.3 | 0.00 | 0.09 | 0.09 | 69 | 1006.6 |
| 20260508231008 | 76 | 157 | 12.2 | 15.6 | 0.00 | 0.09 | 0.09 | 69 | 1006.6 |
| 20260508230505 | 77 | 180 | 12.2 | 14.8 | 0.00 | 0.09 | 0.09 | 67 | 1006.6 |
| 20260508230008 | 77 | 157 | 11.3 | 13.9 | 0.00 | 0.09 | 0.09 | 67 | 1006.6 |
| 20260508225505 | 77 | 157 | 8.7 | 12.2 | 0.00 | 0.09 | 0.09 | 67 | 1006.3 |
| 20260508224509 | 77 | 135 | 7.8 | 10.4 | 0.00 | 0.09 | 0.09 | 67 | 1006.6 |
| 20260508224006 | 77 | 157 | 8.7 | 13.9 | 0.00 | 0.09 | 0.09 | 69 | 1006.6 |
| 20260508223503 | 77 | 180 | 10.4 | 15.6 | 0.00 | 0.09 | 0.09 | 67 | 1007.0 |
| 20260508223006 | 77 | 157 | 11.3 | 13.9 | 0.00 | 0.09 | 0.09 | 67 | 1007.0 |
| 20260508222503 | 77 | 157 | 6.1 | 10.4 | 0.00 | 0.09 | 0.09 | 69 | 1006.6 |
| 20260508222006 | 77 | 180 | 10.4 | 13.0 | 0.00 | 0.09 | 0.09 | 68 | 1006.6 |
| 20260508221503 | 78 | 157 | 9.6 | 12.2 | 0.00 | 0.09 | 0.09 | 68 | 1006.6 |
| 20260508221006 | 78 | 202 | 8.7 | 9.6 | 0.00 | 0.09 | 0.09 | 67 | 1006.6 |
| 20260508220511 | 78 | 157 | 9.6 | 12.2 | 0.00 | 0.09 | 0.09 | 67 | 1006.6 |
| 20260508220006 | 78 | 157 | 10.4 | 12.2 | 0.00 | 0.09 | 0.09 | 66 | 1006.6 |
| 20260508215511 | 78 | 157 | 11.3 | 14.8 | 0.00 | 0.09 | 0.09 | 66 | 1006.6 |
| 20260508215006 | 78 | 157 | 5.2 | 10.4 | 0.00 | 0.09 | 0.09 | 67 | 1006.6 |
| 20260508214509 | 78 | 157 | 10.4 | 13.0 | 0.00 | 0.09 | 0.09 | 66 | 1007.0 |
| 20260508214006 | 78 | 157 | 9.6 | 11.3 | 0.00 | 0.09 | 0.09 | 66 | 1007.0 |
| 20260508213004 | 77 | 157 | 7.8 | 8.7 | 0.00 | 0.09 | 0.09 | 66 | 1007.0 |
| 20260508212527 | 78 | 180 | 8.7 | 11.3 | 0.00 | 0.09 | 0.09 | 65 | 1007.0 |
| 20260508212011 | 78 | 157 | 8.7 | 10.4 | 0.00 | 0.09 | 0.09 | 67 | 1007.0 |
| 20260508211007 | 77 | 180 | 10.4 | 12.2 | 0.00 | 0.09 | 0.09 | 66 | 1007.0 |
| 20260508210504 | 77 | 180 | 6.1 | 7.0 | 0.00 | 0.09 | 0.09 | 66 | 1007.0 |
| 20260508210007 | 77 | 157 | 8.7 | 11.3 | 0.00 | 0.09 | 0.09 | 66 | 1007.0 |
| 20260508205504 | 76 | 157 | 9.6 | 14.8 | 0.00 | 0.09 | 0.09 | 67 | 1007.7 |
| 20260508205007 | 76 | 157 | 10.4 | 13.0 | 0.00 | 0.09 | 0.09 | 66 | 1007.7 |
| 20260508204005 | 76 | 157 | 11.3 | 13.9 | 0.00 | 0.09 | 0.09 | 69 | 1008.3 |
| 20260508203009 | 76 | 157 | 13.0 | 16.5 | 0.00 | 0.09 | 0.09 | 67 | 1008.3 |
| 20260508202507 | 76 | 180 | 12.2 | 15.6 | 0.00 | 0.09 | 0.09 | 66 | 1009.0 |
| 20260508202003 | 75 | 180 | 12.2 | 15.6 | 0.00 | 0.09 | 0.09 | 70 | 1009.0 |
| 20260508201506 | 75 | 180 | 12.2 | 14.8 | 0.00 | 0.09 | 0.09 | 70 | 1008.7 |
| 20260508201003 | 75 | 157 | 13.9 | 17.4 | 0.00 | 0.09 | 0.09 | 67 | 1008.7 |
| 20260508200506 | 76 | 180 | 13.0 | 14.8 | 0.00 | 0.09 | 0.09 | 69 | 1008.7 |
| 20260508200003 | 77 | 225 | 12.2 | 16.5 | 0.00 | 0.09 | 0.09 | 67 | 1008.7 |
| 20260508195503 | 77 | 157 | 11.3 | 15.6 | 0.00 | 0.09 | 0.09 | 66 | 1009.0 |
| 20260508195006 | 77 | 157 | 7.8 | 12.2 | 0.00 | 0.09 | 0.09 | 67 | 1009.0 |
| 20260508194508 | 76 | 180 | 10.4 | 13.9 | 0.00 | 0.09 | 0.09 | 69 | 1009.0 |
| 20260508194005 | 76 | 157 | 12.2 | 15.6 | 0.00 | 0.09 | 0.09 | 68 | 1009.0 |
| 20260508193007 | 76 | 180 | 8.7 | 12.2 | 0.00 | 0.09 | 0.09 | 67 | 1009.0 |
| 20260508192031 | 76 | 202 | 10.4 | 12.2 | 0.00 | 0.09 | 0.09 | 68 | 1009.0 |
| 20260508191508 | 76 | 202 | 11.3 | 13.0 | 0.00 | 0.09 | 0.09 | 67 | 1009.0 |
| 20260508191005 | 76 | 180 | 7.0 | 8.7 | 0.00 | 0.09 | 0.09 | 68 | 1009.0 |
| 20260508190508 | 76 | 180 | 10.4 | 13.0 | 0.00 | 0.09 | 0.09 | 68 | 1009.0 |
| 20260508190005 | 76 | 180 | 7.0 | 8.7 | 0.00 | 0.09 | 0.09 | 69 | 1009.0 |
| 20260508185508 | 76 | 157 | 9.6 | 11.3 | 0.00 | 0.09 | 0.09 | 69 | 1009.7 |
| 20260508185005 | 75 | 180 | 8.7 | 9.6 | 0.00 | 0.09 | 0.09 | 70 | 1009.7 |
| 20260508184508 | 75 | 202 | 7.8 | 8.7 | 0.00 | 0.09 | 0.09 | 70 | 1009.7 |
| 20260508184005 | 75 | 157 | 9.6 | 12.2 | 0.00 | 0.09 | 0.09 | 70 | 1009.7 |
| 20260508183508 | 74 | 202 | 10.4 | 13.0 | 0.00 | 0.09 | 0.09 | 71 | 1009.7 |
| 20260508183005 | 75 | 180 | 11.3 | 13.9 | 0.00 | 0.09 | 0.09 | 71 | 1009.7 |
| 20260508182508 | 75 | 180 | 8.7 | 12.2 | 0.00 | 0.09 | 0.09 | 70 | 1010.0 |
| 20260508181506 | 75 | 202 | 3.5 | 7.8 | 0.00 | 0.09 | 0.09 | 69 | 1010.4 |
| 20260508181003 | 74 | 202 | 9.6 | 14.8 | 0.00 | 0.09 | 0.09 | 71 | 1010.4 |
| 20260508180007 | 73 | 157 | 7.0 | 9.6 | 0.00 | 0.09 | 0.09 | 73 | 1010.4 |
| 20260508175005 | 73 | 180 | 7.8 | 9.6 | 0.00 | 0.09 | 0.09 | 75 | 1010.7 |
| 20260508174508 | 73 | 180 | 8.7 | 11.3 | 0.00 | 0.09 | 0.09 | 73 | 1011.0 |
| 20260508174005 | 73 | 202 | 6.1 | 8.7 | 0.00 | 0.09 | 0.09 | 73 | 1011.0 |